Flag for Japan Weather past 2 weeks in Hiroshima, Japan

Now
51 °F

Passing clouds.


Feels Like: 50 °F
Forecast: 36 / 70 °F
Wind: 5 mph from Northwest

Location: Iwakuni Marine Corps Air Station

Current Time: Mar 30, 2015 at 5:58:17 AM

Latest Report: Mar 30, 2015 at 4:55 AM


Visibility: N/A

Pressure: 30.10 "Hg

Humidity: 69%

Dew point: 41 °F

Location of HiroshimaLocation

Historic Weather in Hiroshima — Graph

°F

Hiroshima temperature yesterday

Maximum temperature yesterday: 64 °F (at 12:55 PM)
Minimum temperature yesterday: 56 °F (at 6:55 AM)
Average temperature yesterday: 60 °F

Past Weeks' High & Low Weather Summary

 TemperatureHumidityPressure
High67 °F (Mar 28, 2:55 PM)97% (Mar 16, 5:55 AM)30.58 "Hg (Mar 16, 5:55 AM)
Low36 °F (Mar 25, 4:55 AM)24% (Mar 25, 7:55 PM)29.73 "Hg (Mar 19, 5:55 AM)
Average54 °F69%30.14 "Hg
* Reported Mar 15 4:55 AM — Mar 30 4:55 AM, Hiroshima, Weather by CustomWeather, © 2015

Note: Actual official high and low records may vary slightly from our data, if they occured in-between our weather recording intervals... More about our weather records

Advertising

Hiroshima weather history for previous 24 hours

 ConditionsComfort  
Time TempWeatherWind HumidityBarometerVisibility
4:55 AM
Mon, Mar 30
51 °FPassing clouds.5 mph69%30.10 "HgN/A
3:55 AM51 °FPassing clouds.5 mph74%30.09 "HgN/A
2:55 AM51 °FPassing clouds.5 mph74%30.08 "HgN/A
1:55 AM52 °FPassing clouds.5 mph72%30.07 "HgN/A
12:55 AM54 °FPassing clouds.5 mph67%30.08 "HgN/A
11:55 PM
Sun, Mar 29
56 °FPassing clouds.5 mph65%30.06 "HgN/A
10:55 PM56 °FPassing clouds.5 mph65%30.06 "HgN/A
9:55 PM60 °FPassing clouds.5 mph53%30.05 "HgN/A
8:55 PM62 °FPassing clouds.5 mph52%30.03 "HgN/A
7:55 PM63 °FPassing clouds.7 mph60%30.01 "HgN/A
6:55 PM61 °FPassing clouds.No wind72%29.97 "HgN/A
5:55 PM61 °FScattered clouds.5 mph72%29.95 "HgN/A
4:55 PM62 °FPassing clouds.No wind73%29.93 "HgN/A
3:55 PM62 °FPassing clouds.12 mph75%29.91 "HgN/A
2:55 PM64 °FPassing clouds.12 mph68%29.91 "HgN/A
1:55 PM63 °FScattered clouds.12 mph65%29.93 "HgN/A
12:55 PM64 °FScattered clouds.9 mph73%29.95 "HgN/A
11:55 AM62 °FPartly sunny.12 mph73%29.98 "HgN/A
10:55 AM61 °FBroken clouds.12 mph75%29.99 "HgN/A
9:55 AM60 °FBroken clouds.6 mph78%30.01 "HgN/A
8:55 AM59 °FBroken clouds.5 mph78%30.00 "HgN/A
7:55 AM59 °FBroken clouds.No wind78%30.00 "HgN/A
6:55 AM56 °FPartly sunny.No wind84%30.00 "HgN/A
5:55 AM57 °FPassing clouds.3 mph81%29.99 "HgN/A
Weather by CustomWeather, © 2015

See weather overviewHow to use our weather pages